Weather in Bharatpur

Nepal     27°40′20″N   84°26′46″E
temp.,
°C
wind,
m/s
gust,
m/s
humid.,
%
clouds,
%
prec.,
mm/h
press.,
hPa
HPBL,
m
28 january, thu
thu2823:45+9nne22650 0.0 101923
02:45+8nne22710 0.0 101822
05:45+7nne22700 0.0 101822
08:45+15nne11410 0.0 1020189
11:45+22ssw32280 0.0 10191008
14:45+23ssw22250 0.0 10161268
17:45+15s22450 0.0 101723
20:45+11ne12580 0.0 101923
29 january, fri
fri2923:45+10nne22590 0.0 101924
02:45+9nne22660 0.0 101830
05:45+8nne22610 0.0 101835
08:45+15n12350 0.0 1020174
11:45+23ssw32250 0.0 10171375
14:45+23ssw33220 0.0 10131767
17:45+15ssw22370 0.0 101423
20:45+11ene12550 0.0 101723
30 january, sat
sat3023:45+9nne22580 0.0 101722
02:45+8nne22570 0.0 101624
05:45+8nne22550 0.0 101627
08:45+15nne12340 0.0 1017189
11:45+22ssw32240 0.0 10151094
14:45+22ssw33230 0.0 10131773
17:45+15ssw22440 0.0 101427
20:45+11ene22580 0.0 101722
31 january, sun
sun3123:45+9nne22620 0.0 101723
02:45+8nne22620 0.0 101625
05:45+8nne22610 0.0 101527
08:45+15nne12370 0.0 1018194
11:45+22ssw33270 0.0 10171185
14:45+23ssw33230 0.0 10151917
17:45+15s22380 0.0 101523
20:45+11ne12460 0.0 101822
1 february, mon
mon123:45+10nne22500 0.0 101923
02:45+9nne22550 0.0 101826
05:45+8nne22590 0.0 101728
08:45+15nne12370 0.0 1020195
11:45+23ssw32230 0.0 10181502
14:45+23ssw32220 0.0 10161938
17:45+16ssw22390 0.0 101626
20:45+12ne12500 0.0 101823